Weather History for Karlovy Vary, Czech Republic

Change the Weather History Date:

Saturday, June 29, 2013

  Actual Average (EDQM) Record (EDQM)
Temperature  
Mean Temperature 50 °F -  
Max Temperature 57 °F 67 °F 87 °F (1997)
Min Temperature 44 °F 51 °F 42 °F (2000)
Degree Days  
Heating Degree Days 14    
Moisture  
Dew Point 48 °F    
Average Humidity 83    
Maximum Humidity 94    
Minimum Humidity 67    
Precipitation  
Precipitation 0.00 in - - ()
Sea Level Pressure  
Sea Level Pressure 30.06 in    
Wind  
Wind Speed 4 mph ()    
Max Wind Speed 10 mph    
Max Gust Speed -    
Visibility 6.1 miles    
Events Rain    
Averages and records for this station are not official NWS values.
T = Trace of Precipitation, MM = Missing Value Source: Averaged Metar Reports

Daily Weather History Graph

Daily Weather History Graph

Search for Another Location

Airport:

Trip Planner

Search our weather history database for the weather conditions in past years. The results will help you decide how hot, cold, wet, or windy it might be!

Date:

Astronomy

Jun. 29, 2013 Rise Set
Actual Time 5:01 AM CEST 9:22 PM CEST
Civil Twilight 4:16 AM CEST 10:06 PM CEST
Nautical Twilight 3:10 AM CEST 11:12 PM CEST
Astronomical Twilight 1:44 AM CEST 12:39 AM CEST
Moon 12:00 AM CEST (6/29) 12:40 PM CEST (6/29)
Length of Visible Light 17h 50m
Length of Day
16h 21m
Waning Gibbous, 58% of the Moon is Illuminated
Jun 29
Waning Gibbous
Jun 30
Last Quarter
Jul 8
New
Jul 16
First Quarter
Jul 22
Full

Hourly Weather History & Observations

Time (CEST) Temp. Dew Point Humidity Pressure Visibility Wind Dir Wind Speed Gust Speed Precip Events Conditions
12:00 AM 44.6 °F 42.8 °F 93% 30.12 in - Variable 1.2 mph - N/A   Clear
1:00 AM 44.6 °F 42.8 °F 93% 30.12 in - Variable 2.3 mph - N/A   Clear
2:00 AM 46.4 °F 42.8 °F 87% 30.12 in 6.2 mi Calm Calm - N/A   Mostly Cloudy
3:00 AM 46.4 °F 42.8 °F 87% 30.09 in - Calm Calm - N/A   Clear
4:00 AM 46.4 °F 42.8 °F 87% 30.09 in - Calm Calm - N/A   Clear
5:00 AM 46.4 °F 44.6 °F 93% 30.06 in - Variable 1.2 mph - N/A   Clear
6:00 AM 46.4 °F 44.6 °F 93% 30.06 in - Variable 1.2 mph - N/A   Clear
7:00 AM 50.0 °F 46.4 °F 87% 30.06 in - Variable 2.3 mph - N/A   Clear
8:00 AM 51.8 °F 46.4 °F 82% 30.06 in 6.2 mi Variable 2.3 mph - N/A   Scattered Clouds
8:24 AM 51.8 °F 46.4 °F 82% 30.06 in 6.2 mi WSW 4.6 mph - N/A Rain Light Rain
8:30 AM 51.8 °F 46.4 °F 82% 30.06 in 6.2 mi WSW 4.6 mph - N/A Rain Light Rain
9:00 AM 51.8 °F 46.4 °F 82% 30.06 in 6.2 mi SW 5.8 mph - N/A Rain Light Rain
9:30 AM 53.6 °F 48.2 °F 82% 30.06 in 6.2 mi SW 5.8 mph - N/A Rain Light Rain
10:00 AM 53.6 °F 46.4 °F 77% 30.06 in 6.2 mi SW 9.2 mph - N/A Rain Light Rain
10:30 AM 55.4 °F 48.2 °F 77% 30.04 in 6.2 mi SW 9.2 mph - N/A Rain Light Rain
11:00 AM 55.4 °F 46.4 °F 72% 30.04 in 6.2 mi SW 10.4 mph - N/A   Mostly Cloudy
11:30 AM 55.4 °F 46.4 °F 72% 30.04 in 6.2 mi SW 9.2 mph - N/A   Scattered Clouds
12:00 PM 57.2 °F 46.4 °F 67% 30.04 in 6.2 mi SW 9.2 mph - N/A   Scattered Clouds
12:30 PM 57.2 °F 46.4 °F 67% 30.04 in 6.2 mi SW 9.2 mph - N/A   Scattered Clouds
1:00 PM 55.4 °F 48.2 °F 77% 30.04 in 6.2 mi WSW 8.1 mph - N/A Rain Light Rain Showers
1:30 PM 55.4 °F 48.2 °F 77% 30.04 in 6.2 mi SW 5.8 mph - N/A Rain Light Rain Showers
2:00 PM 55.4 °F 50.0 °F 82% 30.04 in 6.2 mi SSW 4.6 mph - N/A Rain Light Rain Showers
2:30 PM 55.4 °F 50.0 °F 82% 30.04 in 6.2 mi SSW 4.6 mph - N/A Rain Light Rain Showers
3:00 PM 55.4 °F 50.0 °F 82% 30.04 in 6.2 mi SW 4.6 mph - N/A Rain Light Rain
3:30 PM 55.4 °F 51.8 °F 88% 30.01 in 6.2 mi West 5.8 mph - N/A Rain Light Rain
4:00 PM 57.2 °F 51.8 °F 82% 30.04 in 6.2 mi SW 6.9 mph - N/A   Scattered Clouds
4:30 PM 57.2 °F 50.0 °F 77% 30.04 in 6.2 mi WSW 5.8 mph - N/A   Scattered Clouds
5:00 PM 55.4 °F 48.2 °F 77% 30.04 in 6.2 mi West 4.6 mph - N/A Rain Light Rain
5:30 PM 55.4 °F 50.0 °F 82% 30.04 in 6.2 mi West 6.9 mph - N/A   Mostly Cloudy
6:00 PM 55.4 °F 50.0 °F 82% 30.04 in 6.2 mi West 4.6 mph - N/A   Mostly Cloudy
6:30 PM 55.4 °F 50.0 °F 82% 30.04 in 6.2 mi West 5.8 mph - N/A   Mostly Cloudy
7:00 PM 55.4 °F 51.8 °F 88% 30.04 in 6.2 mi West 5.8 mph - N/A   Mostly Cloudy
7:30 PM 55.4 °F 51.8 °F 88% 30.04 in 6.2 mi West 6.9 mph - N/A   Mostly Cloudy
8:00 PM 55.4 °F 51.8 °F 88% 30.04 in 6.2 mi West 6.9 mph - N/A   Mostly Cloudy
8:30 PM 53.6 °F 51.8 °F 94% 30.06 in 6.2 mi West 6.9 mph - N/A   Mostly Cloudy
9:00 PM 53.6 °F 51.8 °F 94% 30.06 in 4.3 mi WSW 5.8 mph - N/A Rain Light Rain
10:00 PM 53.6 °F 50.0 °F 88% 30.09 in 6.2 mi NW 9.2 mph - N/A   Mostly Cloudy
11:00 PM 51.8 °F 48.2 °F 88% 30.12 in 6.2 mi West 8.1 mph - N/A   Mostly Cloudy